Tracking 26911 objects as of 8-Feb-2023
HD Live streaming from Space Station
objects crossing your sky now

SL-3 R/B

Track SL-3 R/B now!
10-day predictions


NORAD ID: 7275
Int'l Code: 1974-025B
Perigee: 837.1 km
Apogee: 918.3 km
Inclination: 81.2 °
Period: 102.4 minutes
Semi major axis: 7248 km
RCS: 7.5013 m2 (large)
Launch date: April 24, 1974
Source: Commonwealth of Independent States (former USSR) (CIS)
Launch site: PLESETSK MISSILE AND SPACE COMPLEX (PKMTR)

Note: This is a ROCKET BODY
Your satellite tracking list
Your tracking list is empty




NASA's NSSDC Master Catalog

Two Line Element Set (TLE):
1  7275U 74025B   23039.35508613  .00000141  00000-0  76525-4 0  9992
2  7275  81.2442 119.0219 0055996 191.9367 168.0480 14.06737237503226
Source of the keplerian elements: AFSPC